星链-31865 (STARLINK-31865 )

导读

STARLINK-31865是美国SpaceX星链(Starlink)卫星星座中的一颗卫星,于2024年5月18日发射升空。作为星链低轨卫星互联网项目的组成部分,它承担着为全球提供高速卫星互联网接入服务的任务,该卫星的发射进一步扩充了星链星座的在轨规模,推进了星链星座的全球覆盖部署进程。

基本信息
目录编号:
59791
目录名称:
STARLINK-31865
国际标识:
2024-093K
轨道中心:
EARTH
卫星名称:
星链-31865
卫星全名:
星链-31865 (STARLINK-31865 )
卫星状态:
在轨 (已飞行847 天)
发射日期:
2024-05-18 UTC
国别 :
美国 (US)
星等 :
--
该卫星已列入 空间交会检测服务 Space Conjunction Data Service (SCDS) ,当前飞行风险评估等级: 无高风险
轨道信息
数据来源 国际轨道数据
星历时间: 2026-09-11T08:59:26+0800
1天前
查看轨道信息
半长轴: 6861.187km
偏心率: 0.0001465
轨道倾角: 43.002°
近地点辐角 274.111°
升交点赤经 242.035°
平近点角 85.958°
近地点: 482.044km
远地点: 484.056km
周期: 94.267分钟
每日圈数: 15.2758
详细信息
固有亮度:
5
最大亮度:
1.5
卫星平台:
Starlink v2.0 mini
覆盖范围:
全球
运营商:
太空探索技术公司
运营商所在国:
美国
制造商(研发单位):
太空探索技术公司
制造商所在国:
美国
使用方式:
暂无
卫星简介
星链(Starlink)计划是由太空探索技术公司(SpaceX)提出的一个巨型低轨卫星互联网星座项目,计划在2019年至2024年间在太空搭建由约1.2万颗卫星组成的“星链”网络,其中1584颗将部署在地球上空550千米处的近地轨道,并从2020年开始工作。该卫星仍在工作。
2D轨道图
3D轨道图
轨道高度分析图
轨道倾角分析图
轨道综合分析图
查看轨道综合分析图
与全量物体交会距离演化趋势
与全量物体交会风险概率演化趋势